Skip Page Navigation
NASA JPL Caltech
NASA Logo - Jet Propulsion Laboratory + View the NASA Portal
+ Near-Earth Object (NEO) Program
Search JPL
JPL Home Earth Solar System Stars & Galaxies Technology
JPL Solar System Dynamics
BODIES ORBITS EPHEMERIDES TOOLS PHYSICAL DATA DISCOVERY FAQ SITE MAP
JPL Small-Body Database Browser
Search: [ help ]  
8576 (1996 VN8)
Classification: Main-belt Asteroid          SPK-ID: 2008576
Ephemeris | Orbit Diagram | Orbital Elements | Physical Parameters | Discovery Circumstances | Close-Approach Data ]

[ show orbit diagram ]
Orbital Elements at Epoch 2456800.5 (2014-May-23.0) TDB
Reference: JPL 7 (heliocentric ecliptic J2000)
 Element Value Uncertainty (1-sigma)   Units 
e .2069304984685857 6.9898e-08  
a 2.379668860061229 1.9183e-08 AU
q 1.887242796658587 1.6402e-07 AU
i 3.036709389908375 7.4314e-06 deg
node 43.34033977732324 0.00010337 deg
peri 345.9095745902558 0.00010419 deg
M 288.6626788835744 1.5848e-05 deg
tp 2457066.197528066248
(2015-Feb-12.69752807)
6.0806e-05 JED
period 1340.828455665479
3.67
1.6213e-05
4.439e-08
d
yr
n .268490721895759 3.2465e-09 deg/d
Q 2.87209492346387 2.3152e-08 AU
  Orbit Determination Parameters
   # obs. used (total)      827  
   data-arc span      14456 days (39.58 yr)  
   first obs. used      1974-11-12  
   last obs. used      2014-06-11  
   planetary ephem.      DE431  
   SB-pert. ephem.      SB431-BIG16  
   condition code      0  
   fit RMS      .5418  
   data source      ORB  
   producer      Otto Matic  
   solution date      2014-Jul-14 12:19:47  

Additional Information
 Earth MOID = .891256 AU 
 T_jup = 3.508 
[ show covariance matrix ]

Ephemeris | Orbit Diagram | Orbital Elements | Physical Parameters | Discovery Circumstances | Close-Approach Data ]

Physical Parameter Table
Parameter Symbol Value Units Sigma Reference Notes
absolute magnitude H 14.5 mag n/a MPO267742  

8576 (1996 VN8)          Discovered 1996-Nov-07 by Ueda, S., Kaneda, H. at Kushiro (399)
Reference: 19980313/Numbers.arcLast Updated: 2004-04-19

[ show close-approach data ]
Alternate Designations
 1996 VN8 = 1974 VF = 1992 PN3 
Ephemeris | Orbit Diagram | Orbital Elements | Physical Parameters | Discovery Circumstances | Close-Approach Data ]
ABOUT SSD CREDITS/AWARDS PRIVACY/COPYRIGHT GLOSSARY LINKS
FirstGov 2014-Jul-30 15:09 UT
(server date/time)  
NASA Home Page
Site Manager:   Donald K. Yeomans
Webmaster  Alan B. Chamberlin